Berlin, NH

1:18 AM EDT on March 27, 2017 (GMT -0400)
Berlin Municipal

Weather History for KBML - November, 2012

Change the Weather History Date:

Sunday, November 4, 2012

  Actual Average Record
Temperature  
Mean Temperature 35 °F -  
Max Temperature 39 °F 43 °F 64 °F (2008)
Min Temperature 33 °F 26 °F 10 °F (2013)
Degree Days  
Heating Degree Days 30    
Moisture  
Dew Point 29 °F    
Average Humidity 76    
Maximum Humidity 86    
Minimum Humidity 60    
Precipitation  
Precipitation 0.00 in - - ()
Sea Level Pressure  
Sea Level Pressure 29.89 in    
Wind  
Wind Speed 6 mph (WNW)    
Max Wind Speed 10 mph    
Max Gust Speed 17 mph    
Visibility 10 miles    
Events Snow    
Averages and records for this station are not official NWS values.
T = Trace of Precipitation, MM = Missing Value Source: NWS Daily Summary

Daily Weather History Graph

Daily Weather History Graph

Search for Another Location

Airport or City:

Trip Planner

Search our weather history database for the weather conditions in past years. The results will help you decide how hot, cold, wet, or windy it might be!

Date:

Astronomy

Nov. 04, 2012 Rise Set
Actual Time 6:26 AM EST 4:28 PM EST
Civil Twilight 5:56 AM EST 4:59 PM EST
Nautical Twilight 5:21 AM EST 5:34 PM EST
Astronomical Twilight 4:47 AM EST 6:08 PM EST
Moon 9:02 PM EST (11/4) 11:11 AM EST (11/4)
Length of Visible Light 11h 03m
Length of Day
10h 02m
Waning Gibbous, 72% of the Moon is Illuminated
Nov 4
Waning Gibbous
Nov 6
Last Quarter
Nov 13
New
Nov 20
First Quarter
Nov 28
Full

Hourly Weather History & Observations

Time (EST) Temp. Windchill Dew Point Humidity Pressure Visibility Wind Dir Wind Speed Gust Speed Precip Events Conditions
12:52 AM 37.9 °F 35.5 °F 33.1 °F 83% 29.81 in 10.0 mi Variable 3.5 mph - N/A   Overcast
1:52 AM 37.9 °F 32.1 °F 33.1 °F 83% 29.81 in 10.0 mi West 8.1 mph - N/A   Overcast
1:52 AM 37.9 °F 31.5 °F 33.1 °F 83% 29.82 in 10.0 mi West 9.2 mph - N/A   Overcast
2:52 AM 37.0 °F 33.3 °F 33.1 °F 86% 29.82 in 10.0 mi Variable 4.6 mph - N/A   Overcast
3:52 AM 37.0 °F 32.4 °F 32.0 °F 82% 29.83 in 10.0 mi Variable 5.8 mph - N/A   Overcast
4:52 AM 37.0 °F 32.4 °F 32.0 °F 82% 29.85 in 9.0 mi WNW 5.8 mph - N/A   Overcast
5:52 AM 36.0 °F 29.6 °F 32.0 °F 86% 29.86 in 8.0 mi West 8.1 mph - N/A   Overcast
6:52 AM 36.0 °F 33.3 °F 32.0 °F 86% 29.88 in 9.0 mi Variable 3.5 mph - N/A   Overcast
7:52 AM 36.0 °F 29.6 °F 30.0 °F 79% 29.90 in 10.0 mi West 8.1 mph - N/A   Overcast
8:13 AM 35.6 °F 29.2 °F 30.2 °F 81% 29.86 in 10.0 mi West 8.1 mph 16.1 mph N/A   Overcast
8:52 AM 36.0 °F 29.6 °F 30.0 °F 79% 29.90 in 9.0 mi West 8.1 mph - 0.00 in   Overcast
9:52 AM 37.0 °F 32.4 °F 30.0 °F 76% 29.90 in 10.0 mi Variable 5.8 mph 16.1 mph 0.00 in   Overcast
10:52 AM 37.0 °F 32.4 °F 30.0 °F 76% 29.90 in 10.0 mi Variable 5.8 mph - N/A   Overcast
11:13 AM 37.4 °F 32.8 °F 30.2 °F 75% 29.85 in 10.0 mi Variable 5.8 mph - N/A   Overcast
11:41 AM 37.4 °F 32.1 °F 30.2 °F 75% 29.84 in 10.0 mi Variable 6.9 mph - N/A   Overcast
11:52 AM 37.9 °F 32.1 °F 30.0 °F 73% 29.88 in 10.0 mi West 8.1 mph 16.1 mph N/A   Overcast
12:52 PM 37.0 °F 31.0 °F 30.9 °F 79% 29.88 in 10.0 mi West 8.1 mph - N/A   Overcast
1:01 PM 37.4 °F 34.9 °F 30.2 °F 75% 29.85 in 10.0 mi Variable 3.5 mph - N/A   Overcast
1:52 PM 37.0 °F 29.8 °F 28.9 °F 73% 29.88 in 10.0 mi WNW 10.4 mph 17.3 mph 0.00 in   Overcast
2:35 PM 37.4 °F 32.8 °F 30.2 °F 75% 29.86 in 10.0 mi Variable 5.8 mph - N/A   Overcast
2:52 PM 37.0 °F 31.0 °F 30.0 °F 76% 29.90 in 10.0 mi WNW 8.1 mph - N/A   Overcast
3:52 PM 35.1 °F 31.0 °F 30.0 °F 82% 29.91 in 9.0 mi WNW 4.6 mph - 0.00 in   Overcast
4:52 PM 35.1 °F 30.1 °F 28.9 °F 78% 29.93 in 9.0 mi NW 5.8 mph - 0.00 in Snow Light Snow
5:52 PM 35.1 °F 32.2 °F 28.9 °F 78% 29.94 in 10.0 mi Variable 3.5 mph - 0.00 in   Overcast
6:52 PM 34.0 °F 28.8 °F 27.0 °F 75% 29.96 in 10.0 mi NNW 5.8 mph - 0.00 in   Overcast
7:52 PM 34.0 °F 27.2 °F 25.0 °F 70% 29.97 in 10.0 mi NNW 8.1 mph - N/A   Overcast
8:52 PM 33.1 °F 27.7 °F 24.1 °F 70% 29.98 in 10.0 mi Variable 5.8 mph - N/A   Overcast
9:26 PM 33.8 °F 26.4 °F 21.2 °F 60% 29.94 in 10.0 mi NNW 9.2 mph - N/A   Overcast
9:52 PM 33.1 °F - 21.9 °F 64% 29.98 in 10.0 mi Calm Calm - N/A   Overcast
10:24 PM 33.8 °F 27.0 °F 23.0 °F 65% 29.93 in 10.0 mi NNW 8.1 mph - N/A   Overcast
10:52 PM 33.1 °F 27.7 °F 23.0 °F 66% 29.96 in 10.0 mi NW 5.8 mph - N/A   Overcast